DELTA 1 DEB, 9701

Orbit data source: Space-Track

DELTA 1 DEB, 9701 is space debris in SSO originally from a launch on Tue, 06 Nov 1973 UTC launched from the Air Force Western Test Range (AFWTR). Debris objects in space refer to the collection of defunct objects orbiting the Earth. Examples of debris include non-operational satellites, rocket bodies, and fragments generated from explosions, collisions, or faulty payload assembly.

Loading next visibility...
Identifier
9701, 1973-086FZ
Orbit
SSO
Country
Flag of USUS
Related business
Manufacturer
Unknown
Mission
Spacecraft
Bus & Motor
Unknown
Mass
Unknown
Launch date (UTC)
1973-11-06 (53 years ago)
Launch vehicle
Unknown
Launch site
Air Force Western Test Range (AFWTR)
Object type
Payload
Rocket body
Debris
Shape & HBR
Unknown shape, 0.1 m
Radar Cross Section
Medium (>0.1 m² and <1 m²)

Expand to show TLE details & history
Last TLE update: 15 hours ago

TLE from 15 hours ago
0 DELTA 1 DEB
1  9701U 73086FZ  26263.01469661  .00004412  00000-0  92836-2 0  9994
2  9701 102.7358 168.2584 0028872  87.0808 287.4000 13.31845906462864
Epoch: 2026-09-20T00:21Z
TLE epoch observation values (Epoch: 2026-09-20T00:21:09.787Z)
Latitude
13.78154°
Longitude
160.89092°
Altitude
1,135.284 km
Speed
7.289 km/s
True Right ascension
11h 00m 23s
True Declination
13° 42' 22"
Sunlit
Object was in daylight at epoch
Visualization orbit readout
Latitude
Unknown
Longitude
Unknown
Altitude
Unknown
Speed
Unknown
Apparent Right ascension
Unknown
Apparent Declination
Unknown
Sunlit
N/A
Visualization observer readout
Local Sidereal Time
08:47:40
Azimuth
Unknown
Elevation
Unknown
Doppler factor
Unknown
Orbital elements
Apogee altitude
1,159.011 km
Perigee altitude
1,115.613 km
Semi-major axis
7,515.449 km
Eccentricity
0.00289
Inclination
102.7358°
RAAN
168.2584°
Arg. of periapsis
87.0808°
True anomaly
287.08395°
Mean anomaly
287.4°
Eccentric anomaly
287.24201°
Mean motion
3.33128 °/min
Orbital period
108.07 mins
BSTAR
0.0092836
Loading maneuver chart data...
Computing Atmospheric mass density...
Loading historical data...
Loading historical data...
Loading historical data...
Loading historical data...
Loading historical data...
Loading historical data...
Loading historical data...

Documentation

Showing up to 5 results
|